Location: Eisingen in Unterfranken
(49.7591°N, 9.8347°E)
Time: 02:51:30
(UTC+01:00)

BlueWalker 3 - Pass Details

Date: 03 December 2022
Orbit: 499 x 517 km, 53.2° (Epoch: 26 January)

Event Time Altitude Azimuth Distance (km) Brightness Sun altitude
Rises 19:49:31 0° 293° (WNW) 2,628 6.6 -32.6°
Reaches altitude 10° 19:51:43 10° 292° (WNW) 1,735 5.4 -32.9°
Enters shadow 19:52:30 15° 292° (WNW) 1,424 4.9 -33.1°
